This is the latest recevied weather packets stored in our database for station/object KC1HBM. If no packets are shown the sender has not sent any weather packets the latest 10 day(s).
| Time | Temp. | Humidity | Pressure | Rain* | Wind** | Luminosity | Snow |
|---|---|---|---|---|---|---|---|
| 1778064110 | 12.22° C | 93% | 1007.2 hPa | 0 mm | - | 23 W/m² | - |
| 1778063807 | 11.67° C | 93% | 1007.1 hPa | 0 mm | - | 23 W/m² | - |
| 1778063504 | 11.67° C | 93% | 1007 hPa | 0 mm | - | 27 W/m² | - |
| 1778063202 | 11.67° C | 92% | 1007.1 hPa | 0 mm | - | 24 W/m² | - |
| 1778062899 | 11.67° C | 93% | 1007.3 hPa | 0 mm | - | 27 W/m² | - |
| 1778062596 | 11.67° C | 93% | 1007 hPa | 0 mm | - | 21 W/m² | - |
| 1778062292 | 11.11° C | 93% | 1007 hPa | 0 mm | - | 28 W/m² | - |
| 1778061991 | 11.11° C | 94% | 1006.8 hPa | 0 mm | - | 28 W/m² | - |
| 1778061688 | 11.11° C | 94% | 1006.9 hPa | 0 mm | - | 21 W/m² | - |
| 1778061387 | 10.56° C | 94% | 1007 hPa | 0 mm | - | 17 W/m² | - |
| 1778061083 | 10.56° C | 94% | 1007.2 hPa | 0 mm | - | 9 W/m² | - |
| 1778060781 | 10.56° C | 94% | 1007.1 hPa | 0 mm | - | 5 W/m² | - |
| 1778060478 | 10.56° C | 94% | 1006.9 hPa | 0 mm | - | 3 W/m² | - |
| 1778060177 | 10.56° C | 94% | 1006.8 hPa | 0 mm | - | 2 W/m² | - |
| 1778059874 | 10.56° C | 94% | 1006.6 hPa | 0 mm | - | 0 W/m² | - |
| 1778059572 | 10.56° C | 93% | 1006.9 hPa | 0 mm | - | 0 W/m² | - |
| 1778059268 | 11.11° C | 93% | 1006.8 hPa | 0 mm | - | 0 W/m² | - |
| 1778058966 | 11.11° C | 93% | 1006.9 hPa | 0 mm | - | 0 W/m² | - |
| 1778058664 | 11.11° C | 92% | 1006.7 hPa | 0 mm | - | 0 W/m² | - |
| 1778058361 | 11.11° C | 92% | 1006.9 hPa | 0 mm | - | 0 W/m² | - |
| 1778058057 | 11.67° C | 92% | 1006.9 hPa | 0 mm | - | 0 W/m² | - |
| 1778057754 | 11.67° C | 92% | 1007 hPa | 0 mm | - | 0 W/m² | - |
| 1778057451 | 11.67° C | 92% | 1006.9 hPa | 0 mm | - | 0 W/m² | - |
| 1778057148 | 11.67° C | 92% | 1006.7 hPa | 0 mm | - | 0 W/m² | - |
| 1778056844 | 11.67° C | 92% | 1006.6 hPa | 0 mm | - | 0 W/m² | - |
* Rain latest hour (hover to see other rain measurements)
** Current wind speed in m/s (hover to see current wind gust speed)